Location: Paddlesworth
(51.1000°N, 1.1333°E)
Time: 20:41:43
(UTC+00:00)

Cosmos 1536 - Pass Details

Date: 11 May 2021
Orbit: 539 x 558 km, 82.5° (Epoch: 20 June)

Event Time Altitude Azimuth Distance (km) Brightness Sun altitude
Rises 22:39:19 0° 341° (NNW) 2,750 8.1 -19.0°
Reaches altitude 10° 22:41:42 10° 330° (NNW) 1,846 6.7 -19.1°
Maximum altitude 22:45:11 28° 270° (W) 1,052 4.4 -19.2°
Enters shadow 22:46:50 21° 231° (SW) 1,268 4.4 -19.3°
